Location: Pine Mountain Observatory
(43.7910°N, 120.9377°W)
Time: 04:26:47
(UTC-07:00)

Transit 4A - Visible Passes

Search period start: 24 May 2019 00:00
Search period end: 03 June 2019 00:00
Orbit: 862 x 983 km, 66.8° (Epoch: 23 May)

Date Brightness Start Highest point End Pass type
(mag) Time Alt. Az. Time Alt. Az. Time Alt. Az.
24 May 8.6 01:39:08 10° NW 01:44:56 37° WSW 01:45:05 37° WSW visible
24 May 10.1 22:16:18 10° N 22:20:24 17° NNE 22:24:28 10° ENE visible
25 May 8.3 00:01:46 10° NNW 00:08:09 62° NE 00:10:25 39° ESE visible
25 May 9.2 01:48:58 10° NW 01:53:54 25° WSW 01:53:54 25° WSW visible
25 May 9.8 22:25:22 10° NNW 22:30:13 22° NE 22:35:02 10° E visible
26 May 7.9 00:11:06 10° NNW 00:17:34 86° ENE 00:19:17 52° SE visible
26 May 9.6 01:59:11 10° WNW 02:02:46 17° W 02:02:46 17° W visible
26 May 9.4 22:34:29 10° NNW 22:39:58 28° NE 22:44:41 13° E visible
27 May 8.0 00:20:31 10° NW 00:26:53 68° WSW 00:28:11 54° S visible
27 May 10.1 02:10:49 10° W 02:11:41 11° W 02:11:41 11° W visible
27 May 9.0 22:43:40 10° NNW 22:49:36 37° NE 22:53:38 18° ESE visible
28 May 8.3 00:30:03 10° NW 00:36:08 47° WSW 00:37:08 44° SW visible
28 May 10.1 21:07:37 10° N 21:11:08 15° NNE 21:14:38 10° ENE visible
28 May 8.5 22:52:54 10° NNW 22:59:09 50° NE 23:02:37 25° ESE visible
29 May 8.9 00:39:43 10° NW 00:45:18 32° WSW 00:46:07 31° WSW visible
29 May 9.9 21:16:38 10° N 21:21:01 19° NE 21:25:21 10° ENE visible
29 May 8.1 23:02:11 10° NNW 23:08:37 70° ENE 23:11:39 32° SE visible
30 May 9.4 00:49:40 10° WNW 00:54:22 22° WSW 00:55:09 22° WSW visible
30 May 9.6 21:25:43 10° NNW 21:30:48 24° NE 21:35:50 10° E visible
30 May 7.9 23:11:33 10° NNW 23:18:00 85° WSW 23:20:43 37° SSE visible
31 May 9.8 01:00:09 10° WNW 01:03:23 14° W 01:04:13 14° WSW visible
31 May 9.2 21:34:51 10° NNW 21:40:31 31° NE 21:46:03 10° ESE visible
31 May 8.2 23:21:00 10° NW 23:27:18 60° WSW 23:29:49 35° S visible
01 Jun 8.8 21:44:04 10° NNW 21:50:07 41° NE 21:55:27 13° ESE visible
01 Jun 8.7 23:30:35 10° NW 23:36:30 41° WSW 23:38:58 29° SSW visible
02 Jun 8.3 21:53:18 10° NNW 21:59:38 57° NE 22:04:38 16° SE visible
02 Jun 9.3 23:40:20 10° NW 23:45:38 28° WSW 23:48:09 22° SW visible
